• In Netherlands
  • List of Countries
  • For 7 days
  • Water Temperature
  • Satellite Maps
  • Weather Map
  • Weather Widgets
  • user-avatar
    Login

    Hourly Weather Tirana

    Today, 17 January, Tuesday

    Time Temperature Precipitation Wind Pressure Humidity
    00:00 +2°C° 0.2 mm 6 mps 747 mmHg 87%
    01:00 +2°C° 0.2 mm 6 mps 747 mmHg 88%
    02:00 +2°C° 0.3 mm 6 mps 747 mmHg 88%
    03:00 +2°C° 0.3 mm 6 mps 747 mmHg 88%
    04:00 +2°C° 0.3 mm 6 mps 748 mmHg 88%
    05:00 +1°C° 0.3 mm 5 mps 748 mmHg 88%
    06:00 +1°C° 0.3 mm 5 mps 748 mmHg 88%
    07:00 +1°C° 0.3 mm 5 mps 749 mmHg 88%
    08:00 +2°C° 0.1 mm 5 mps 749 mmHg 86%
    09:00 +3°C° 0.1 mm 5 mps 749 mmHg 85%
    10:00 +6°C° 0.1 mm 5 mps 750 mmHg 83%
    11:00 +6°C° 0 mm 5 mps 749 mmHg 83%
    12:00 +7°C° 0 mm 5 mps 749 mmHg 83%
    13:00 +7°C° 0 mm 5 mps 749 mmHg 82%
    14:00 +7°C° 0.1 mm 5 mps 749 mmHg 83%
    15:00 +6°C° 0.1 mm 5 mps 749 mmHg 85%
    16:00 +5°C° 0.1 mm 5 mps 749 mmHg 86%
    17:00 +5°C° 0.1 mm 5 mps 750 mmHg 85%
    18:00 +3°C° 0.1 mm 6 mps 750 mmHg 85%
    19:00 +3°C° 0.1 mm 6 mps 750 mmHg 85%
    20:00 +2°C° 0 mm 6 mps 750 mmHg 85%
    21:00 +2°C° 0 mm 6 mps 750 mmHg 84%
    22:00 +2°C° 0 mm 6 mps 750 mmHg 84%
    23:00 +2°C° 0 mm 7 mps 750 mmHg 84%

    Tomorrow, 18 January, Wednesday

    Time Temperature Precipitation Wind Pressure Humidity
    00:00 +2°C° 0 mm 7 mps 750 mmHg 84%
    01:00 +2°C° 0 mm 7 mps 750 mmHg 83%
    02:00 +2°C° 0.2 mm 7 mps 751 mmHg 83%
    03:00 +2°C° 0.2 mm 7 mps 751 mmHg 83%
    04:00 +2°C° 0.2 mm 6 mps 751 mmHg 83%
    05:00 +2°C° 0.1 mm 6 mps 751 mmHg 83%
    06:00 +2°C° 0.1 mm 7 mps 752 mmHg 83%
    07:00 +2°C° 0.1 mm 7 mps 752 mmHg 83%
    08:00 +3°C° 0.1 mm 6 mps 753 mmHg 81%
    09:00 +4°C° 0.1 mm 6 mps 753 mmHg 79%
    10:00 +5°C° 0.1 mm 6 mps 753 mmHg 77%
    11:00 +5°C° 0.1 mm 6 mps 753 mmHg 77%
    12:00 +5°C° 0.1 mm 6 mps 753 mmHg 76%
    13:00 +7°C° 0.1 mm 6 mps 752 mmHg 76%
    14:00 +5°C° 0.1 mm 7 mps 752 mmHg 77%
    15:00 +5°C° 0.1 mm 8 mps 752 mmHg 77%
    16:00 +4°C° 0.1 mm 8 mps 752 mmHg 78%
    17:00 +4°C° 0.4 mm 8 mps 752 mmHg 79%
    18:00 +2°C° 0.4 mm 8 mps 753 mmHg 80%
    19:00 +3°C° 0.4 mm 7 mps 753 mmHg 81%
    20:00 +3°C° 0.4 mm 7 mps 753 mmHg 82%
    21:00 +2°C° 0.4 mm 7 mps 754 mmHg 83%
    22:00 +2°C° 0.4 mm 7 mps 755 mmHg 84%
    23:00 +2°C° 0.1 mm 7 mps 755 mmHg 84%

    Day after tomorrow, 19 January, Thursday

    Time Temperature Precipitation Wind Pressure Humidity
    00:00 +2°C° 0.1 mm 6 mps 755 mmHg 84%
    01:00 +2°C° 0.1 mm 6 mps 755 mmHg 84%
    02:00 +2°C° 0.1 mm 6 mps 755 mmHg 84%
    03:00 +2°C° 0.1 mm 6 mps 756 mmHg 84%
    04:00 +1°C° 0.1 mm 6 mps 756 mmHg 84%
    05:00 +1°C° 0.1 mm 6 mps 756 mmHg 83%
    06:00 +1°C° 0.1 mm 6 mps 756 mmHg 83%
    07:00 +1°C° 0.1 mm 6 mps 757 mmHg 83%
    08:00 +2°C° 0 mm 6 mps 757 mmHg 81%
    09:00 +3°C° 0 mm 6 mps 757 mmHg 78%
    10:00 +4°C° 0 mm 6 mps 757 mmHg 76%
    11:00 +4°C° 0 mm 6 mps 757 mmHg 75%
    12:00 +5°C° 0 mm 6 mps 757 mmHg 75%
    13:00 +7°C° 0 mm 5 mps 757 mmHg 75%
    14:00 +6°C° 0.2 mm 5 mps 757 mmHg 77%
    15:00 +5°C° 0.2 mm 5 mps 758 mmHg 79%
    16:00 +5°C° 0.2 mm 5 mps 758 mmHg 81%
    17:00 +3°C° 0.2 mm 5 mps 758 mmHg 82%
    18:00 +3°C° 0.2 mm 5 mps 759 mmHg 82%
    19:00 +2°C° 0.2 mm 5 mps 759 mmHg 83%
    20:00 +2°C° 0.2 mm 5 mps 760 mmHg 83%
    21:00 +2°C° 0.2 mm 5 mps 760 mmHg 84%
    22:00 +1°C° 0.2 mm 5 mps 761 mmHg 84%
    23:00 +1°C° 0.1 mm 5 mps 761 mmHg 84%

    20 January, Friday

    Time Temperature Precipitation Wind Pressure Humidity
    00:00 +1°C° 0.1 mm 5 mps 761 mmHg 84%
    01:00 +1°C° 0.1 mm 5 mps 761 mmHg 84%
    02:00 0°C° 0 mm 4 mps 761 mmHg 84%
    03:00 0°C° 0 mm 4 mps 761 mmHg 84%
    04:00 0°C° 0 mm 4 mps 761 mmHg 84%
    05:00 0°C° 0 mm 4 mps 762 mmHg 84%
    06:00 0°C° 0 mm 4 mps 762 mmHg 83%
    07:00 -1°C° 0 mm 4 mps 762 mmHg 83%
    08:00 +1°C° 0 mm 4 mps 762 mmHg 80%
    09:00 +4°C° 0 mm 4 mps 762 mmHg 77%
    10:00 +5°C° 0 mm 4 mps 763 mmHg 74%
    11:00 +7°C° 0 mm 3 mps 762 mmHg 73%
    12:00 +8°C° 0 mm 3 mps 762 mmHg 72%
    13:00 +9°C° 0 mm 3 mps 762 mmHg 71%
    14:00 +8°C° 0.1 mm 3 mps 762 mmHg 74%
    15:00 +7°C° 0.1 mm 3 mps 762 mmHg 77%
    16:00 +7°C° 0.1 mm 3 mps 762 mmHg 80%
    17:00 +5°C° 0.1 mm 3 mps 762 mmHg 81%
    18:00 +4°C° 0.1 mm 3 mps 762 mmHg 82%
    19:00 +3°C° 0.1 mm 4 mps 763 mmHg 83%
    20:00 +3°C° 0 mm 4 mps 763 mmHg 83%
    21:00 +1°C° 0 mm 4 mps 763 mmHg 83%
    22:00 +1°C° 0 mm 4 mps 763 mmHg 83%
    23:00 +1°C° 0 mm 4 mps 763 mmHg 83%

    21 January, Saturday

    Time Temperature Precipitation Wind Pressure Humidity
    00:00 +1°C° 0 mm 4 mps 763 mmHg 83%
    01:00 +1°C° 0 mm 4 mps 763 mmHg 83%
    02:00 +1°C° 0 mm 4 mps 762 mmHg 83%
    03:00 0°C° 0 mm 4 mps 762 mmHg 83%
    04:00 0°C° 0 mm 4 mps 762 mmHg 83%
    05:00 0°C° 0 mm 4 mps 762 mmHg 82%
    06:00 0°C° 0 mm 4 mps 762 mmHg 82%
    07:00 0°C° 0 mm 4 mps 762 mmHg 81%
    08:00 +3°C° 0 mm 4 mps 762 mmHg 78%
    09:00 +4°C° 0 mm 4 mps 762 mmHg 75%
    10:00 +6°C° 0 mm 4 mps 762 mmHg 72%
    11:00 +8°C° 0 mm 3 mps 762 mmHg 71%
    12:00 +9°C° 0 mm 3 mps 761 mmHg 70%
    13:00 +9°C° 0 mm 3 mps 761 mmHg 70%
    14:00 +9°C° 0 mm 3 mps 760 mmHg 73%
    15:00 +7°C° 0 mm 4 mps 760 mmHg 76%
    16:00 +6°C° 0 mm 4 mps 760 mmHg 79%
    17:00 +5°C° 0 mm 4 mps 760 mmHg 80%
    18:00 +3°C° 0 mm 5 mps 760 mmHg 81%
    19:00 +3°C° 0 mm 5 mps 760 mmHg 82%
    20:00 +3°C° 0 mm 5 mps 760 mmHg 81%
    21:00 +2°C° 0 mm 5 mps 760 mmHg 81%
    22:00 +2°C° 0 mm 5 mps 760 mmHg 80%
    23:00 +2°C° 0 mm 5 mps 760 mmHg 80%

    22 January, Sunday

    Time Temperature Precipitation Wind Pressure Humidity
    00:00 +2°C° 0 mm 5 mps 759 mmHg 80%
    01:00 +2°C° 0 mm 5 mps 759 mmHg 80%
    02:00 +2°C° 0 mm 5 mps 758 mmHg 81%
    03:00 +2°C° 0 mm 5 mps 758 mmHg 81%
    04:00 +2°C° 0 mm 6 mps 757 mmHg 81%
    05:00 +2°C° 0 mm 6 mps 757 mmHg 80%
    06:00 +2°C° 0 mm 7 mps 757 mmHg 79%
    07:00 +2°C° 0 mm 7 mps 757 mmHg 78%
    08:00 +3°C° 0 mm 7 mps 756 mmHg 75%
    09:00 +5°C° 0 mm 7 mps 756 mmHg 72%
    10:00 +6°C° 0 mm 7 mps 756 mmHg 69%
    11:00 +7°C° 0.6 mm 6 mps 756 mmHg 70%
    12:00 +8°C° 0.6 mm 5 mps 755 mmHg 71%
    13:00 +8°C° 0.6 mm 4 mps 755 mmHg 72%
    14:00 +7°C° 1.3 mm 4 mps 755 mmHg 75%
    15:00 +7°C° 1.3 mm 4 mps 754 mmHg 78%
    16:00 +6°C° 1.3 mm 4 mps 754 mmHg 81%
    17:00 +6°C° 1 mm 5 mps 754 mmHg 83%
    18:00 +5°C° 1 mm 5 mps 754 mmHg 85%
    19:00 +4°C° 1 mm 6 mps 754 mmHg 87%
    20:00 +4°C° 0.1 mm 6 mps 754 mmHg 87%
    21:00 +4°C° 0.1 mm 6 mps 754 mmHg 86%
    22:00 +4°C° 0.1 mm 6 mps 754 mmHg 86%
    23:00 +3°C° 0.5 mm 6 mps 754 mmHg 86%
    Show more